Location: Brunembert
(50.7122°N, 1.8935°E)
Time: 16:44:11
(UTC+00:00)

X-37B - Visible Passes

Search period start: 25 September 2021 00:00
Search period end: 05 October 2021 00:00
Orbit: 381 x 393 km, 45.0° (Epoch: 29 August)

Date Brightness Start Highest point End Pass type
(mag) Time Alt. Az. Time Alt. Az. Time Alt. Az.
25 Sep 2.9 03:40:29 15° SSE 03:40:29 15° SSE 03:42:19 10° ESE visible
26 Sep 2.2 04:17:04 20° SSW 04:18:09 25° S 04:20:50 10° ESE visible
27 Sep 3.1 03:21:20 16° SE 03:21:20 16° SE 03:22:23 10° ESE visible
27 Sep 1.9 04:53:37 12° WSW 04:56:05 29° S 04:58:53 10° ESE visible
28 Sep 1.9 03:57:54 28° S 03:57:54 28° S 04:00:38 10° ESE visible
29 Sep 3.8 03:02:12 11° ESE 03:02:12 11° ESE 03:02:17 10° ESE visible
29 Sep 1.9 04:34:29 20° SW 04:35:47 27° S 04:38:31 10° SE visible
30 Sep 2.6 03:38:49 21° SE 03:38:49 21° SE 03:40:21 10° ESE visible
30 Sep 2.5 05:11:23 10° WSW 05:13:39 18° SSW 05:15:55 10° SSE visible
01 Oct 2.1 04:15:31 23° SSW 04:15:31 23° SSW 04:18:02 10° SE visible
02 Oct 3.7 03:19:58 10° SE 03:19:58 10° SE 03:19:59 10° SE visible
02 Oct 2.8 04:52:16 12° SW 04:53:16 13° SSW 04:54:52 10° S visible
03 Oct 3.1 03:56:49 13° SSE 03:56:49 13° SSE 03:57:22 10° SSE visible
